www.pogodaiklimat.ru

Погода и климат >> Архив погоды >> Россия >> Амурская область >> Шимановск


ПОГОДА в Шимановске

  • Прогноз погоды в Шимановске
  • Монитор погоды в Шимановске

АРХИВ ПОГОДЫ в Шимановске

Время (UTC), дата Ветер
(напр.,м/с)
 
Видим.   Явления Облачность Т
(С)
Тd
(С)
f
(%)
Тe
(С)
Тes
(С)
Комфортность P
(гПа)
Po
(гПа)
Тmin
(С)
Tmax
(С)
R
(мм)
R24
(мм)
S
(см)
03 14.07 Ю 2 50 км {гроза} 10/8 600 м
[Cb cap Ci fib]
+23.5 +16.9 66 +27 +30 душно 1003.7 972.1
06 14.07 Ю 3 50 км гроза без осадков 10/6 600 м
[Cb cap Ci fib]
+22.7 +17.7 73 +28 +31 душно 1002.8 971.1
09 14.07 ЮЗ 3 50 км {гроза} 9/4 600 м
[Cb cap Ac trans Ci fib]
+23.5 +16.7 66 +27 +28 душно 1002.9 971.3
12 14.07 ЮЗ 1 50 км {гроза} 10/6 600 м
[Cb cap Ac trans Ci fib]
+20.1 +16.5 80 +24 +24 комфорт 1004.5 972.5 +24.1
15 14.07 штиль 0 н/о 10/4 600 м
[Cb cap Ac trans Ci fib]
+18.0 +17.2 95 +18 +18 1005.3 973.1
18 14.07 ЮЗ 2 н/о 10/6 600 м
[Cb cap Ac trans Ci fib]
+18.1 +17.3 95 +19 +19 1005.7 973.5
21 14.07 ЮЗ 1 50 км 10/6 600 м
[Cb cap Ac trans]
+18.5 +17.5 94 +20 +21 1006.2 974.0
00 15.07 З 4 50 км 10/6 600 м
[Cb cap Ac trans]
+20.0 +18.1 89 +23 +24 комфорт 1006.5 974.5 +17.6
03 15.07 ЮЗ 4 50 км 10/10 600 м
[Cb cap]
+23.5 +18.3 73 +28 +28 душно 1006.2 974.5
06 15.07 С 1
{10}
50 км гроза без осадков 10/8 600 м
[Cb cap Ac trans]
+24.0 +17.6 67 +28 +29 душно 1005.5 973.9
09 15.07 ЮЗ 1 50 км гроза без осадков {ливн. осадки} 10/9 600 м
[Cb cap Ac trans Ci fib]
+21.2 +18.3 84 +25 +26 комфорт 1005.8 973.9
12 15.07 З 2 50 км {гроза} 10/8 600 м
[Cb cap Ac trans]
+20.0 +18.6 92 +24 +24 комфорт 1006.8 974.7 +26.2 1
15 15.07 В 1 н/о 10/10 600 м
[Cb cap]
+18.1 +17.3 95 +19 +19 1008.3 976.0
18 15.07 Ю 1 н/о 10/10 600 м
[Cb cap]
+18.6 +16.4 87 +21 +21 комфорт 1007.7 975.5
21 15.07 Ю 2 50 км 10/10 600 м
[Cb cap]
+18.5 +17.7 95 +20 +20 1007.5 975.3
00 16.07 ЮВ 2 50 км 10/10 600 м
[Cb calv]
+19.6 +18.5 93 +23 +23 комфорт 1007.8 975.7 +17.9
03 16.07 ЮВ 2 10 км слаб. ливневой дождь 10/10 600 м
[Cb calv]
+19.7 +18.9 95 +23 +23 комфорт 1007.0 974.9
06 16.07 ЮЗ 2 50 км {ливн. осадки} 8/8 600 м
[Cb calv]
+22.7 +16.8 69 +27 +30 душно 1006.0 974.2
09 16.07 З 1 50 км 8/4 600 м
[Cb calv Ci fib]
+24.5 +16.6 61 +28 +30 душно 1004.9 973.4
12 16.07 ЮЗ 1 50 км 8/4 600 м
[Cb calv Ac trans Ci fib]
+20.6 +19.0 91 +26 +26 душно 1006.1 974.2 +24.8 3
15 16.07 ЮЗ 1 н/о {ливн. осадки} 10/6 600 м
[Cb calv Ac trans]
+19.0 +18.4 96 +22 +22 комфорт 1006.0 973.9
18 16.07 Ю 1 н/о дымка 10/10 600 м
[Cb calv]
+18.5 +18.2 98 +20 +20 1005.9 973.7
21 16.07 ЮВ 2 50 км 10/10 600 м
[Cb calv]
+18.2 +17.9 98 +19 +19 1005.5 973.3
00 17.07 ЮВ 2 50 км {ливн. осадки} 10/10 600 м
[Cb cap]
+19.5 +18.2 92 +22 +22 комфорт 1005.3 973.3 +18.1 6
03 17.07 З 2 50 км 10/9 600 м
[Sc Ac und]
+22.1 +17.4 75 +27 +27 душно 1005.0 973.2
06 17.07 Ю 1 50 км 3/3 600 м
[Sc]
+25.9 +15.4 52 +29 +39 душно 1002.8 971.5
09 17.07 В 3 10 км ливневой дождь 10/10 600 м
[Cb cap]
+20.7 +19.8 95 +26 +26 душно 1003.2 971.4
12 17.07 В 2 50 км {гроза, ливн. осадки} 10/8 600 м
[Cb cap Ac trans Ci fib]
+20.6 +18.7 89 +25 +25 комфорт 1004.5 972.7 +27.4 17
15 17.07 СВ 1 н/о 10/0
[Ac trans Ci fib]
+18.3 +18.0 98 +20 +20 1004.7 972.5
18 17.07 СВ 1 н/о 10/0
[Ci fib]
+16.9 +16.6 98 +18 +18 1004.3 972.0
21 17.07 СВ 2 4000 м дымка 10/10 600 м
[St]
+16.1 +15.8 98 +16 +16 1004.9 972.4
00 18.07 С 3 50 км 10/8 600 м
[Cb cap Ci fib]
+18.0 +16.5 91 +18 +19 1004.4 972.2 +15.9
03 18.07 В 2 50 км 4/3 600 м
[Sc diur, vesp Ac trans]
+24.7 +15.3 56 +28 +38 душно 1003.3 971.9
06 18.07 В 2 50 км 8/3 600 м
[Cb cap Ac trans Ci fib]
+27.2 +13.1 42 +29 +34 жарко 1001.7 970.5
09 18.07 СВ 3 50 км 3/0
[Ci fib]
+27.6 +12.6 39 +29 +31 жарко 1001.0 969.8
12 18.07 штиль 0 50 км 3/0
[Ci fib]
+20.1 +17.3 84 +23 +23 комфорт 1002.5 970.6 +28.3
15 18.07 штиль 0 н/о 4/0
[Ci fib]
+15.4 +14.3 93 +15 +15 1003.3 970.8
18 18.07 штиль 0 н/о 10/0
[Ci fib]
+13.7 +13.2 97 +13 +13 1003.3 970.6
21 18.07 штиль 0 50 км 10/0
[Ci fib]
+15.0 +13.8 93 +15 +16 1003.2 970.6
00 19.07 З 2 50 км 10/0
[Ci fib]
+23.3 +16.8 67 +28 +35 душно 1002.4 970.8 +12.5
03 19.07 З 3 50 км 8/0
[Ci fib]
+28.6 +18.3 54 +33 +45 очень
душно
1001.4 970.4
06 19.07 З 4 50 км 10/6 1000 м
[Cu med, cong Ci fib]
+30.8 +16.7 43 +34 +37 очень
душно
1000.8 970.0
09 19.07 З 2 50 км 10/4 600 м
[Cb cap Ci fib]
+27.0 +18.0 58 +32 +33 очень
душно
1001.9 970.7
12 19.07 ЮЗ 1 50 км 10/5 600 м
[Cb cap Ac trans Ci fib]
+23.9 +17.5 67 +28 +28 душно 1003.2 971.7 +31.2
15 19.07 В 1 н/о 10/3 600 м
[Cb cap Ac trans Ci fib]
+21.6 +17.7 78 +26 +26 душно 1004.7 972.8
18 19.07 ЮЗ 1 н/о 10/3 600 м
[Cb cap Ac trans]
+20.0 +18.4 91 +24 +24 комфорт 1004.3 972.3
21 19.07 ЮЗ 3 50 км 10/10 600 м
[Cb cap]
+20.0 +18.2 89 +23 +23 комфорт 1004.6 972.6
00 20.07 Ю 1 10 км слаб. ливневой дождь 10/10 600 м
[Cb calv]
+19.8 +19.2 96 +24 +24 комфорт 1004.3 972.3 +19.7 4
03 20.07 ЮЗ 4 50 км {ливн. осадки} 10/10 600 м
[Cb calv]
+20.9 +20.0 95 +26 +26 душно 1003.6 971.8
06 20.07 ЮЗ 2 10 км слаб. ливневой дождь 10/10 600 м
[Cb calv]
+21.8 +20.9 95 +28 +28 душно 1003.4 971.7
09 20.07 ЮЗ 3 50 км гроза без осадков {ливн. осадки} 10/8 600 м
[Cb calv Ac trans]
+22.4 +21.8 96 +30 +30 очень
душно
1002.0 970.4
12 20.07 Ю 3 50 км {гроза, ливн. осадки} 10/10 600 м
[Cb calv]
+21.4 +20.3 93 +27 +27 душно 1002.9 971.2 +23.2 6
15 20.07 ЮЗ 2 н/о слаб. ливневой дождь {гроза} 10/10 600 м
[Cb calv]
+20.9 +20.4 97 +27 +27 душно 1002.2 970.5
18 20.07 ЮЗ 2 н/о {гроза, ливн. осадки} 10/8 600 м
[Cb calv Ac trans]
+20.8 +20.2 96 +26 +26 душно 1001.3 969.5
21 20.07 ЮЗ 2 50 км 10/10 600 м
[Cb calv]
+21.1 +20.3 95 +26 +26 душно 1001.5 969.8

 

Местоположение метеостанции Шимановск (Амурская область, Россия): широта 51.98 долгота 127.60 высота над уровнем моря 281 м.

В архиве по умолчанию представлена погода в Шимановске за последнюю неделю. Архивные данные за месяц целиком и за предыдущие месяцы, начиная с января 2011 года, Вы можете получить, выбрав интересующий диапазон дат из раскрывающегося списка и нажав кнопку "Ввод!".


*Определитесь, кто Вы:
робот инопланетянин человек

Внимание! Время в таблицах - всемирное. Для получения местного времени необходимо прибавить поправку, которая равна 9 ч.

Смотрите также архив погоды в соседних городах и на ближайших метеорологических станциях:

Погода в Саскале (Амурская область, Россия) (61 км)
Погода в Свободном (Амурская область, Россия) (68 км)
Погода в Хума (Хэйлунцзян, Китай) (71 км)
Погода в Мазаново (Амурская область, Россия) (91 км)
Погода в Белогорске (Амурская область, Россия) (130 км)
Погода в Октябрьский Прииск (Амурская область, Россия) (132 км)
Погода в Сергеевке (Амурская область, Россия) (135 км)
Погода в Черняево (Амурская область, Россия) (140 км)
Погода в Тыгде (Амурская область, Россия) (152 км)
Погода в Норске (Амурская область, Россия) (162 км)

Пояснения к столбцам:

Ветер - указаны скорость ветра в м/с - средняя за 10 мин, порывы в срок и между сроками (в фигурных скобках) и направление, откуда дует ветер: С - северный, СВ - северо-восточный, В - восточный, ЮВ - юго-восточный, Ю - южный, ЮЗ - юго-западный, З - западный, СЗ - северо-западный.
Видимость - горизонтальная дальность видимости в метрах или километрах. При видимости от 1 до 10 км при отсутствии осадков обычно наблюдается дымка, при ухудшении видимости до 1 км и менее - туман. В сухую погоду видимость может ухудшаться дымом, пылью или мглою.
Явления - указаны атмосферные явления, наблюдавшиеся в срок или в последний час перед сроком; фигурными скобками обозначены явления, наблюдавшиеся между сроками (за 1-3 часа до срока); квадратными скобками обозначены град или гололедные отложения с указанием их диаметра в мм.
Облачность - указаны через наклонную черту общая и нижняя облачность в баллах и высота нижней границы облаков в метрах; квадратными скобками обозначены формы облаков: Ci - перистые, Cs - перисто-слоистые, Cc - перисто-кучевые, Ac - высококучевые, As - высокослоистые, Sc - слоисто-кучевые, Ns - слоисто-дождевые, Cu - кучевые, Cb - кучево-дождевые. Подробнее классификацию облаков см. в Атласе облаков (PDF).
T - Температура воздуха - температура, измеренная на высоте 2 м над землей.
Td - Температура точки росы - температура, при понижении до которой содержащийся в воздухе водяной пар достигнет насыщения.
f - Относительная влажность воздуха - влажноcть воздуха, измеренная на высоте 2 м над землей.
Te - Эффективная температура - температура, которую ощущает одетый по сезону человек в тени. Характеристика душности погоды. При расчете учитывается влияние влажности воздуха и скорости ветра на теплоощущения человека.
Tes - Эффективная температура на солнце - температура, которую ощущает человек, с поправкой на солнечный нагрев. Характеристика знойности погоды. Зависит от высоты солнца над горизонтом, облачности и скорости ветра. Ночью, в пасмурную погоду, а также при ветре 12 м/с и более поправка равна нулю.
P - Атмосферное давление - приведенное к уровню моря атмосферное давление.
Po - Атмосферное давление - измеренное на уровне метеостанции атмосферное давление.
Tmin - Минимальная температура - минимум температуры воздуха на высоте 2 м над землей.
Tmax - Максимальная температура - максимум температуры воздуха на высоте 2 м над землей.
R - Количество осадков - Количество выпавших осадков за период времени, мм. При наведении курсора мыши на число - период времени, за который выпало указанное количество осадков.
R24 - Количество осадков - Количество выпавших осадков за 24 часа, мм.
S - Снежный покров - Высота снежного покрова, см. При наведении курсора мыши на число - состояние снежного покрова и степень покрытия местности в баллах.